Location: Oberkirch
(48.5323°N, 8.0787°E)
Time: 17:11:27
(UTC+00:00)

CZ-3 R/B - Pass Details

Date: 08 November 2025
Orbit: 547 x 10008 km, 28.3° (Epoch: 09 December)

Event Time Altitude Azimuth Distance (km) Brightness Sun altitude
Rises 05:09:27 0° 237° (WSW) 6,909 5.5 -12.7°
Reaches altitude 10° 05:17:57 10° 216° (SW) 4,070 4.5 -11.3°
Maximum altitude 05:21:51 13° 191° (SSW) 3,022 4.1 -10.7°
Drops below altitude 10° 05:24:40 10° 164° (SSE) 2,709 4.2 -10.3°
Sets 05:28:01 0° 133° (SE) 3,097 5.3 -9.7°
